Location: Oklahoma City
(35.4680°N, 97.5160°W)
Time: 20:25:28
(UTC-05:00)

ISS - Visible Passes

Search period start: 29 May 2017 00:00
Search period end: 08 June 2017 00:00
Orbit: 402 x 408 km, 51.6° (Epoch: 30 May)

Date Brightness Start Highest point End Pass type
(mag) Time Alt. Az. Time Alt. Az. Time Alt. Az.
29 May -0.5 21:30:42 10° NW 21:32:06 12° NNW 21:33:31 10° N visible
01 Jun -0.2 00:39:31 10° N 00:39:38 10° N 00:39:38 10° N visible
03 Jun -0.4 00:30:49 10° NNW 00:31:18 12° NNW 00:31:18 12° NNW visible
03 Jun -0.9 23:39:19 10° N 23:40:51 14° NNE 23:40:51 14° NNE visible
05 Jun -0.5 00:22:38 10° NW 00:23:04 13° NW 00:23:04 13° NW visible
05 Jun -1.5 23:30:46 10° NNW 23:32:41 22° N 23:32:41 22° N visible
06 Jun -1.4 22:39:07 10° NNW 22:41:16 16° NNE 22:42:18 14° NE visible
07 Jun -0.5 00:14:45 10° NW 00:14:57 11° NW 00:14:57 11° NW visible
07 Jun -1.0 21:47:59 10° N 21:48:50 11° NNE 21:49:40 10° NE visible
07 Jun -2.1 23:22:36 10° NW 23:24:37 33° NNW 23:24:37 33° NNW visible
